Location: Ostrava
(49.8330°N, 18.2830°E)
Time: 20:46:23
(UTC+02:00)

NOAA 19 - Visible Passes

Search period start: 02 September 2014 00:00
Search period end: 12 September 2014 00:00
Orbit: 843 x 863 km, 98.9° (Epoch: 07 September)

Date Brightness Start Highest point End Pass type
(mag) Time Alt. Az. Time Alt. Az. Time Alt. Az.
02 Sep 5.5 02:55:13 10° NNE 03:00:45 61° ESE 03:02:13 45° SSE visible
02 Sep 6.4 04:36:33 10° N 04:41:07 27° WNW 04:44:16 16° WSW visible
03 Sep 5.8 02:44:14 10° NNE 02:49:39 50° E 02:50:55 42° SE visible
03 Sep 6.2 04:25:20 10° N 04:30:10 31° WNW 04:32:58 20° WSW visible
04 Sep 6.1 02:33:16 10° NNE 02:38:32 41° E 02:39:38 37° SE visible
04 Sep 6.0 04:14:09 10° N 04:19:13 37° WNW 04:21:41 25° WSW visible
05 Sep 6.4 02:22:21 10° NNE 02:27:23 34° E 02:28:21 32° ESE visible
05 Sep 5.7 04:02:59 10° N 04:08:14 44° WNW 04:10:24 30° WSW visible
06 Sep 6.6 02:11:29 10° NE 02:16:14 28° E 02:17:03 27° ESE visible
06 Sep 5.5 03:51:51 10° N 03:57:15 53° WNW 03:59:06 37° WSW visible
06 Sep 7.2 05:34:59 10° NNW 05:36:48 12° NW 05:38:37 10° WNW visible
07 Sep 6.9 02:00:41 10° NE 02:05:03 23° E 02:05:46 23° ESE visible
07 Sep 5.3 03:40:44 10° N 03:46:14 64° WNW 03:47:49 45° SW visible
07 Sep 7.1 05:23:17 10° NNW 05:25:57 14° NW 05:28:37 10° WNW visible
08 Sep 7.2 01:49:59 10° NE 01:53:51 19° E 01:54:28 19° E visible
08 Sep 5.1 03:29:38 10° NNE 03:35:12 77° WNW 03:36:31 53° SW visible
08 Sep 7.0 05:11:48 10° NNW 05:15:05 16° NW 05:18:21 10° W visible
09 Sep 7.4 01:39:24 10° NE 01:42:38 16° E 01:43:10 15° E visible
09 Sep 5.1 03:18:34 10° NNE 03:24:09 89° ESE 03:25:13 61° SSW visible
09 Sep 6.8 05:00:25 10° N 05:04:11 19° NW 05:07:16 12° W visible
10 Sep 7.6 01:29:07 10° ENE 01:31:23 12° E 01:31:52 12° E visible
10 Sep 5.2 03:07:31 10° NNE 03:13:05 75° ESE 03:13:55 62° SSE visible
10 Sep 6.6 04:49:06 10° N 04:53:17 22° NW 04:55:58 16° W visible
11 Sep 5.4 02:56:29 10° NNE 03:02:00 61° ESE 03:02:38 57° SE visible
11 Sep 6.4 04:37:51 10° N 04:42:21 26° WNW 04:44:41 20° W visible
